TimeAKST,TemperatureF,Dew PointF,Humidity,Sea Level PressureIn,VisibilityMPH,Wind Direction,Wind SpeedMPH,Gust SpeedMPH,PrecipitationIn,Events,Conditions,WindDirDegrees,DateUTC
12:17 AM,35.6,32.0,87,29.07,7.0,SE,29.9,44.9,0.01,Rain,Light Rain,130,2013-03-02 09:17:00
12:56 AM,36.0,32.0,86,29.08,10.0,ESE,24.2,28.8,0.02,Rain,Light Rain,120,2013-03-02 09:56:00
1:56 AM,36.0,32.0,86,29.05,10.0,SE,19.6,-,0.00,,Mostly Cloudy,130,2013-03-02 10:56:00
2:12 AM,37.4,30.2,75,29.03,10.0,SE,17.3,-,N/A,,Partly Cloudy,130,2013-03-02 11:12:00
2:56 AM,37.9,30.9,76,29.03,10.0,SE,17.3,24.2,0.00,Rain,Light Rain,140,2013-03-02 11:56:00
3:56 AM,37.9,28.9,70,29.02,10.0,SE,15.0,23.0,0.00,,Partly Cloudy,130,2013-03-02 12:56:00
4:56 AM,37.9,28.9,70,28.99,10.0,SE,18.4,-,N/A,,Overcast,130,2013-03-02 13:56:00
5:15 AM,35.6,30.2,81,28.97,6.0,SE,21.9,35.7,0.00,Rain,Rain,130,2013-03-02 14:15:00
5:56 AM,37.0,30.0,76,28.99,10.0,SE,20.7,-,0.00,,Mostly Cloudy,130,2013-03-02 14:56:00
6:06 AM,37.4,30.2,75,28.97,10.0,SE,20.7,27.6,N/A,,Overcast,130,2013-03-02 15:06:00
6:56 AM,37.0,28.9,73,28.98,10.0,ESE,20.7,35.7,N/A,,Mostly Cloudy,120,2013-03-02 15:56:00
7:26 AM,35.6,30.2,81,28.97,7.0,SE,28.8,39.1,0.00,Rain-Snow,Snow,130,2013-03-02 16:26:00
7:56 AM,36.0,30.0,79,28.99,10.0,SE,17.3,25.3,0.00,Rain-Snow,Snow,140,2013-03-02 16:56:00
8:06 AM,35.6,30.2,81,28.97,6.0,ESE,15.0,27.6,0.00,Rain-Snow,Light Snow,110,2013-03-02 17:06:00
8:19 AM,35.6,30.2,81,28.98,5.0,SE,24.2,31.1,0.00,Rain-Snow,Light Snow,130,2013-03-02 17:19:00
8:42 AM,35.6,30.2,81,28.99,5.0,ESE,15.0,21.9,0.01,Rain-Snow,Light Snow,120,2013-03-02 17:42:00
8:56 AM,37.0,30.0,76,29.01,6.0,East,13.8,19.6,0.01,Rain-Snow,Light Snow,80,2013-03-02 17:56:00
9:56 AM,37.0,30.0,76,29.02,6.0,East,17.3,25.3,0.01,Rain-Snow,Light Snow,100,2013-03-02 18:56:00
10:56 AM,36.0,30.9,82,29.06,8.0,East,9.2,-,0.00,Rain-Snow,Light Snow,80,2013-03-02 19:56:00
10:58 AM,35.6,30.2,81,29.04,7.0,East,13.8,-,0.00,Rain-Snow,Light Snow,90,2013-03-02 19:58:00
11:56 AM,35.1,32.0,89,29.09,5.0,NE,8.1,-,0.01,Rain-Snow,Light Snow,50,2013-03-02 20:56:00
12:07 PM,35.6,32.0,87,29.08,3.0,ENE,11.5,-,0.00,Rain-Snow,Light Snow,60,2013-03-02 21:07:00
12:48 PM,35.6,32.0,87,29.10,5.0,NE,9.2,-,0.02,Rain-Snow,Light Snow,40,2013-03-02 21:48:00
12:56 PM,36.0,32.0,86,29.12,5.0,NE,6.9,-,0.02,Rain-Snow,Light Snow,50,2013-03-02 21:56:00
1:56 PM,35.1,32.0,89,29.14,6.0,WNW,3.5,-,0.03,Rain-Snow,Light Snow,290,2013-03-02 22:56:00
2:56 PM,36.0,32.0,86,29.17,8.0,NNW,11.5,-,0.01,Rain-Snow,Light Snow,340,2013-03-02 23:56:00
3:56 PM,37.0,32.0,82,29.21,10.0,North,16.1,-,0.00,,Overcast,350,2013-03-03 00:56:00
4:39 PM,37.4,32.0,81,29.22,10.0,NNE,9.2,-,N/A,,Overcast,30,2013-03-03 01:39:00
4:56 PM,37.0,32.0,82,29.24,10.0,NNW,5.8,-,N/A,,Overcast,340,2013-03-03 01:56:00
5:16 PM,35.6,33.8,93,29.25,10.0,North,8.1,-,N/A,,Overcast,350,2013-03-03 02:16:00
5:56 PM,37.9,32.0,79,29.30,8.0,ENE,10.4,18.4,0.00,Rain-Snow,Light Snow,60,2013-03-03 02:56:00
6:56 PM,37.0,33.1,86,29.36,8.0,North,9.2,-,0.00,Rain-Snow,Light Snow,360,2013-03-03 03:56:00
7:26 PM,37.4,33.8,87,29.37,10.0,North,12.7,26.5,0.00,,Overcast,350,2013-03-03 04:26:00
7:56 PM,37.0,33.1,86,29.42,10.0,North,13.8,24.2,0.00,,Overcast,350,2013-03-03 04:56:00
8:30 PM,37.4,33.8,87,29.44,10.0,NNW,16.1,25.3,0.00,,Overcast,340,2013-03-03 05:30:00
8:56 PM,37.0,33.1,86,29.47,10.0,North,17.3,-,0.00,,Overcast,350,2013-03-03 05:56:00
9:56 PM,37.0,32.0,82,29.52,10.0,North,23.0,27.6,N/A,,Overcast,360,2013-03-03 06:56:00
10:22 PM,37.4,32.0,81,29.54,10.0,NNW,18.4,-,N/A,,Overcast,340,2013-03-03 07:22:00
10:56 PM,37.0,33.1,86,29.59,10.0,NNW,19.6,27.6,N/A,,Overcast,340,2013-03-03 07:56:00
11:50 PM,37.4,33.8,87,29.62,10.0,North,19.6,27.6,N/A,,Overcast,350,2013-03-03 08:50:00
11:56 PM,37.0,33.1,86,29.63,10.0,NNW,23.0,27.6,N/A,,Overcast,330,2013-03-03 08:56:00